User: anonymous   Login
Location: Newark
(43.0000°N, 1.6781°W)
Time: 00:53:03
(UTC+00:00)
Language:

Delta 2 Rocket - Orbit

View from above orbital plane
View from above orbital plane
View from above satellite
View from above satellite

Ground track
Ground track

The orbit data is extracted from the following two-line orbital elements,

1 20453U 90008B   24201.49734527  .00014176  00000-0  51650-3 0  9990
2 20453  35.6200 354.9126 0198441 307.2224  51.0538 15.10845592834411
Epoch (UTC): 19 July 2024 11:56:10
Eccentricity: 0.0198441
inclination: 35.6200°
perigee height: 396 km
apogee height: 671 km
right ascension of ascending node: 354.9126°
argument of perigee: 307.2224°
revolutions per day: 15.10845592
mean anomaly at epoch: 51.0538°
orbit number at epoch: 83441

The dashed part of the orbit path shows where the satellite is in the earth's shadow,  

DLR